Location: Puketoi
(40.5833°S, 176.0167°E)
Time: 14:28:31
(UTC+00:00)

BREEZE-M DEB (TANK) - Pass Details

Date: 08 February 2023
Orbit: 312 x 12952 km, 49.6° (Epoch: 21 March)

Event Time Altitude Azimuth Distance (km) Brightness Sun altitude
Exits shadow 16:41:25 - 245° (WSW) 1,680 5.0 -9.6°
Reaches altitude 10° 16:42:10 10° 249° (WSW) 1,320 4.4 -9.5°
Maximum altitude 16:44:34 49° 327° (NNW) 608 2.7 -9.1°
Drops below altitude 10° 16:49:17 10° 42° (NE) 2,597 6.4 -8.3°
Sets 16:53:39 0° 46° (NE) 4,666 7.8 -7.6°
